{"data":{"norad_id":62255,"intl_designator":"2024-232U","name":"QIANFAN-54","alt_names":[],"object_type":"PAYLOAD","status":"ACTIVE","operator":null,"country":"PRC","launch_date":"2024-12-05","launch_site_code":"TAISC","launch_vehicle":null,"mission":null,"orbit_class":"UNKNOWN","rcs_meters":null,"size_class":null,"mass_kg":null,"dimensions":null,"purposes":[],"wikipedia_slug":null,"has_3d_model":false,"image_url":null,"decayed_at":null,"tle_current":{"epoch":"2026-05-25T03:12:20.194848Z","epoch_age_seconds":60817,"freshness":"FRESH","line1":"1 62255U 24232U   26145.13356707  .00000094  00000+0  12757-3 0  9990","line2":"2 62255  89.0094  24.4632 0003837 102.1538 258.0043 13.51008000121479","mean_motion":13.51008,"eccentricity":0.0003837,"inclination_deg":89.0094,"raan_deg":24.4632,"arg_perigee_deg":102.1538,"mean_anomaly_deg":258.0043,"bstar":0.00012757,"rev_number":12147,"period_min":106.5870816457,"perigee_km":1065.6948933895,"apogee_km":1071.4094826723,"semimajor_km":7446.6891880309,"source":"CELESTRAK","updated_at":"2026-05-25T13:38:02.870105Z"}}}